Dewpoint
49 43 30 29 23 19 10 8 8 17 19 41 43 40 41 50 50 44 61 62 66 65 65 66 68 69 69 69 70 70 70 70 70 70 70 70 70 70 70 70 69 69 68 68 67 67 67 68 69
34 23 26 26 20 10 9 12 18 26 41 47 47 46 43 50 57 59 60 60 65 64 65 66 68 68 67 67 68 68 68 68 69 69 69 69 68 68 67 67 68 68 68 68 68 68 69 69 69
34 22 19 20 17 12 8 16 19 40 45 46 46 50 50 54 58 59 59 59 62 63 64 66 66 65 65 65 65 65 66 66 67 67 67 66 66 65 65 65 65 65 65 65 65 65 65 66 67
23 18 19 16 13 14 16 16 20 37 44 47 47 48 52 55 58 59 57 58 60 61 62 64 64 63 63 64 64 64 64 63 64 64 64 63 63 62 62 62 62 62 62 62 61 61 61 61 63
18 15 14 15 15 15 17 17 18 22 40 44 46 49 52 55 58 56 56 57 58 60 62 60 61 62 61 61 61 61 61 61 61 61 61 60 60 60 59 58 57 57 57 57 57 56 57 57 58
16 14 13 12 12 15 16 17 21 24 34 43 44 48 51 55 55 53 52 56 59 58 59 58 59 59 58 58 57 57 58 57 57 57 57 56 56 55 54 53 53 52 52 52 52 52 52 53 54
15 13 12 11 12 12 15 22 23 25 29 39 45 45 51 54 53 50 49 53 57 59 59 58 56 56 55 56 56 55 54 54 53 52 52 52 51 50 50 50 50 50 49 49 49 49 49 49 49
15 14 12 12 11 12 17 19 32 33 32 47 46 41 48 52 51 49 48 50 52 54 56 56 55 55 55 54 53 52 51 50 49 48 47 49 46 47 47 45 47 47 47 46 46 46 46 46 46
19 13 10 11 12 12 13 17 30 35 38 42 45 45 50 52 50 48 47 46 47 49 51 53 53 53 54 51 51 49 47 46 47 47 45 45 44 43 42 45 44 43 43 43 42 43 44 45 45
16 12 11 14 13 13 12 11 22 26 34 40 44 48 51 50 50 49 49 47 46 46 47 51 51 49 45 43 47 46 44 45 45 46 45 44 45 42 40 42 40 41 41 41 41 40 42 43 40
17 13 12 13 13 12 11 10 13 20 22 28 37 46 48 49 50 50 49 48 46 44 44 47 48 46 42 42 41 40 41 42 43 44 45 44 42 43 40 39 38 39 38 38 38 38 38 41 42
15 13 14 13 12 12 11 12 10 13 16 24 27 43 47 48 49 49 47 46 44 42 43 44 46 46 44 40 39 39 39 40 40 42 43 42 40 41 41 39 37 37 38 39 39 38 40 40 40
5 6 9 14 14 14 13 12 12 12 16 27 30 41 44 46 48 48 45 44 42 41 40 41 43 44 44 42 42 41 40 40 40 40 42 41 39 40 40 39 37 37 38 38 38 38 38 39 38
8 8 4 3 6 11 12 12 12 13 23 30 34 37 41 44 47 47 44 43 42 40 40 41 42 43 43 43 42 40 40 39 39 40 40 40 40 40 38 38 36 37 37 38 37 38 37 37 37
14 9 8 4 2 2 5 1 -0 10 24 26 32 36 40 44 46 44 43 42 40 39 40 42 43 43 42 41 39 38 37 37 37 38 40 40 39 39 37 37 37 37 37 36 36 36 35 35 36
14 12 10 11 6 8 7 2 8 19 25 25 32 36 41 44 44 43 42 40 38 38 40 38 38 41 40 40 37 36 38 36 35 36 38 39 39 39 36 35 36 38 36 35 35 35 35 35 35
13 10 9 8 8 7 8 6 14 20 23 27 33 37 40 42 42 43 42 40 37 38 38 39 40 40 39 39 38 38 37 34 34 34 35 37 37 38 35 35 37 36 34 35 35 35 36 35 34
10 9 7 7 10 12 11 10 11 18 18 21 28 35 38 40 41 42 41 38 37 38 38 39 39 40 39 37 36 35 34 33 32 32 34 35 35 35 34 33 35 34 33 33 34 36 35 35 34
13 12 10 10 10 10 12 12 12 9 16 19 21 30 36 39 41 41 40 38 37 38 38 38 39 39 36 35 33 33 31 31 30 30 31 31 33 33 33 31 32 33 32 34 34 34 33 33 35
14 12 12 13 13 12 12 11 10 10 12 15 16 21 33 38 40 40 39 38 37 38 37 38 38 37 35 34 32 30 29 29 29 29 29 29 29 31 28 31 31 33 30 32 33 34 32 31 33
12 12 12 11 10 10 9 8 10 11 11 15 18 19 26 36 39 39 39 38 38 37 37 35 35 35 33 35 32 30 30 28 25 24 23 25 26 28 30 30 31 31 29 30 31 32 31 29 31
8 11 13 12 11 8 11 7 9 10 15 16 18 22 23 32 37 38 38 38 37 37 36 35 34 34 33 30 29 27 23 22 22 21 23 22 25 25 28 28 29 29 29 30 30 30 29 29 29
11 16 14 13 12 12 10 10 9 10 11 14 21 24 26 30 35 37 37 37 37 36 35 34 32 30 30 29 28 24 22 23 20 21 22 23 24 24 24 26 26 27 27 29 30 30 29 28 29
14 13 14 14 13 10 9 9 7 10 9 11 22 24 27 29 33 36 37 36 35 35 35 34 30 29 28 27 26 25 24 21 20 20 18 18 19 21 23 23 24 25 25 26 26 28 29 29 29
13 11 9 8 10 9 9 7 6 11 14 17 21 24 28 31 33 35 35 35 35 34 34 33 30 27 24 22 23 23 23 23 23 20 19 17 18 19 22 22 23 22 24 24 24 25 27 29 28
11 10 9 5 4 4 9 7 11 18 20 25 26 27 29 32 34 34 35 35 34 35 35 32 29 24 21 20 20 21 21 19 19 19 18 18 18 19 22 22 22 22 23 23 23 23 23 26 26
9 7 11 9 9 9 8 9 13 17 20 24 21 26 30 32 33 34 34 35 35 35 35 33 29 23 21 20 20 21 21 19 19 21 19 17 16 17 21 21 21 21 22 22 22 22 23 23 23
9 9 10 12 8 6 6 6 7 19 18 23 27 31 28 34 33 34 34 35 35 35 36 35 31 25 23 21 21 21 21 21 21 20 19 19 19 19 20 20 20 21 22 22 22 21 22 23 22
8 9 9 9 8 7 8 9 17 18 18 18 19 21 37 32 36 34 34 35 36 39 36 35 32 31 25 22 21 22 21 22 22 21 22 21 19 19 19 19 20 21 22 22 23 23 23 22 24
11 10 10 13 14 10 12 16 14 17 18 18 21 21 32 39 38 40 36 36 39 37 35 35 33 28 32 28 23 24 25 24 23 25 25 25 21 20 20 20 21 22 22 25 23 22 23 23 22
Wind_Speed
13 13 11 11 11 11 21 21 4 4 7 5 5 8 10 18 9 4 1 11 5 17 12 12 11 15 15 16 16 15 14 12 11 9 9 8 8 8 9 10 8 5 4 5 6 6 6 7 6
13 7 10 14 12 20 21 3 6 5 10 5 1 2 5 8 15 11 5 7 7 17 10 11 12 15 14 15 14 14 14 18 16 17 16 15 14 14 15 15 14 13 12 12 11 10 10 9 8
12 10 14 18 21 22 17 8 8 6 2 6 4 5 6 6 7 6 8 5 11 14 14 13 16 16 16 17 15 15 14 16 19 17 16 16 14 15 16 16 15 13 12 12 12 11 11 12 11
8 12 14 14 21 17 6 7 1 6 4 5 1 8 9 8 6 11 13 9 12 14 15 17 17 18 18 16 16 16 16 15 18 17 15 15 15 15 16 16 15 13 12 11 11 11 11 11 9
13 12 18 21 18 8 4 10 4 11 8 5 5 10 7 9 18 18 14 11 13 18 17 18 16 17 17 16 15 16 16 15 16 17 14 14 14 14 14 14 13 12 12 12 12 12 12 12 11
16 14 18 19 11 3 6 4 8 10 8 5 5 9 7 15 16 15 14 12 14 18 17 16 17 17 16 16 16 15 15 15 16 15 14 13 13 13 13 13 13 12 12 12 11 11 11 12 12
17 19 20 21 13 6 5 2 10 11 11 10 3 7 9 15 16 17 16 13 13 16 15 13 13 16 16 15 16 14 15 15 15 13 12 12 12 12 11 13 11 12 11 11 12 12 12 12 13
16 19 21 16 14 10 6 5 3 9 6 8 2 5 10 17 19 18 17 16 14 11 11 13 9 13 12 12 13 13 13 14 15 12 8 6 10 8 9 8 11 11 12 10 11 11 12 13 13
13 17 20 17 6 10 5 9 4 4 2 6 4 8 10 26 23 21 19 16 15 12 10 9 9 7 12 12 10 11 10 9 9 9 4 2 6 6 4 9 9 10 13 9 11 12 13 14 18
12 18 19 11 6 5 3 7 1 7 8 7 7 9 22 23 22 21 20 18 15 14 11 9 8 9 9 9 8 7 7 8 9 8 6 5 4 5 5 3 1 3 9 6 9 8 14 10 12
14 18 19 10 9 7 9 8 7 9 11 11 15 15 20 22 20 18 17 15 16 15 12 11 8 8 7 7 5 5 5 5 7 9 7 5 4 7 6 7 8 9 10 11 12 11 12 13 12
13 18 14 17 5 13 13 14 9 11 7 6 5 16 20 22 20 18 17 16 16 14 14 13 11 8 4 5 5 6 6 5 6 8 9 5 5 6 8 8 8 9 10 11 11 11 12 12 12
18 18 15 12 11 13 15 15 17 15 4 2 2 15 20 20 19 16 16 16 17 17 15 13 11 10 8 6 7 6 6 7 6 8 10 9 8 7 8 8 9 9 10 11 12 13 13 13 13
16 12 18 17 16 17 16 19 20 13 2 3 7 13 16 18 18 16 16 16 15 15 14 12 11 9 9 8 7 7 6 6 7 9 9 10 8 7 7 8 9 10 10 11 11 13 13 13 13
12 19 20 22 20 17 9 20 26 6 3 7 8 10 12 15 16 16 15 15 14 14 15 13 11 9 9 9 7 7 7 6 7 8 10 11 11 9 8 9 10 10 10 11 11 12 12 13 13
17 19 21 14 8 8 10 19 12 7 6 8 9 9 13 15 15 15 16 15 16 16 14 12 10 10 9 9 8 8 8 8 8 8 10 11 12 11 10 9 10 10 9 10 11 12 13 13 14
18 19 20 9 10 6 12 17 13 10 7 8 11 13 15 17 17 18 17 17 16 15 14 13 12 11 9 9 9 9 8 8 9 9 9 11 11 11 8 9 10 9 9 10 12 12 13 13 16
17 14 12 13 7 12 16 18 18 15 11 12 13 16 18 20 21 20 19 16 14 14 13 13 11 10 9 8 8 9 9 9 8 9 10 10 10 10 9 8 9 9 9 10 12 12 13 12 17
16 20 24 22 21 23 20 24 25 22 16 13 15 16 19 20 19 19 18 16 16 14 14 13 12 11 10 9 8 8 7 8 8 9 9 9 10 10 10 8 8 9 8 11 13 11 13 12 17
19 22 24 24 22 19 21 25 25 21 22 16 18 17 19 20 22 20 18 17 15 15 13 13 12 10 7 7 7 7 7 7 7 8 9 9 10 10 9 9 8 9 8 10 12 14 13 10 17
19 19 20 22 22 25 25 30 26 27 25 5 11 14 18 21 21 19 19 17 15 14 12 12 11 9 6 10 10 9 8 7 6 5 6 8 8 9 8 9 9 9 9 10 12 14 15 13 14
18 14 11 16 17 19 8 24 17 2 13 14 13 9 10 15 20 20 19 18 16 14 11 11 10 10 8 4 6 4 3 6 6 5 6 8 9 9 9 9 9 9 9 10 11 12 12 12 12
16 5 13 15 18 20 21 17 19 20 16 20 14 9 9 13 18 21 21 19 17 14 12 11 11 10 7 6 6 5 7 8 6 6 5 6 6 8 8 9 9 9 9 9 10 9 11 10 10
14 14 17 16 18 24 21 24 23 9 6 4 11 9 8 10 15 18 18 17 17 14 13 12 12 11 9 8 7 7 8 8 7 5 4 5 5 6 8 7 7 8 7 8 7 7 9 10 12
16 17 16 19 21 21 19 10 11 3 4 4 8 9 7 10 14 17 20 21 19 17 16 14 13 12 11 10 10 9 9 9 8 5 5 4 5 5 7 6 7 7 7 7 6 8 10 10 11
20 20 20 19 20 18 2 9 6 7 10 5 2 3 7 10 13 17 20 21 20 19 17 15 15 13 12 12 11 10 9 8 7 5 6 5 5 6 5 6 7 8 8 7 8 9 9 10 9
18 23 19 25 24 22 25 27 10 14 12 8 6 4 5 9 12 16 19 20 21 20 18 16 16 15 14 13 11 10 8 7 8 8 6 6 5 6 6 7 8 9 9 9 7 10 10 9 10
20 18 14 17 22 26 22 19 6 9 7 12 5 3 7 9 12 16 19 20 20 19 18 17 16 16 15 14 12 10 10 9 8 8 7 7 7 6 6 8 10 9 9 9 9 9 12 12 12
22 25 21 22 24 24 26 20 6 7 2 3 9 9 9 9 13 15 18 20 19 16 19 17 15 13 16 14 12 12 10 9 9 9 8 8 7 7 8 9 9 9 9 9 11 12 13 14 14
23 25 22 21 20 22 23 25 15 7 10 6 5 2 1 10 12 11 17 18 17 21 20 19 18 17 11 13 15 12 10 8 10 9 9 8 8 8 8 8 9 9 10 10 10 14 13 14 15
Wind_Direction
267 236 240 245 243 231 262 257 249 274 217 63 339 329 355 22 8 206 81 3 84 111 123 102 81 79 87 90 87 95 101 93 91 93 97 92 88 83 75 68 51 37 26 3 356 344 338 328 332
272 256 245 267 250 259 251 159 181 346 39 57 121 260 256 83 61 105 102 350 93 100 103 100 91 100 94 89 85 87 95 98 84 79 84 81 77 78 73 67 59 54 46 40 31 21 5 356 341
264 255 265 238 239 256 283 62 3 64 167 188 141 351 31 58 73 101 100 76 89 105 101 91 89 89 88 81 82 81 79 82 92 87 83 81 79 76 72 69 65 61 54 48 40 33 22 11 0
261 227 242 254 262 266 274 341 348 182 184 211 356 111 91 43 117 110 119 101 107 107 101 91 90 92 90 91 89 84 80 75 84 85 83 78 73 68 66 65 61 55 48 41 35 24 15 12 7
243 261 261 248 262 273 292 282 292 265 172 163 209 127 97 92 102 110 112 105 103 96 89 91 88 94 100 99 98 96 94 92 92 92 88 84 81 78 72 65 57 50 44 33 26 15 3 358 351
257 246 266 258 254 76 247 287 260 252 217 158 220 134 101 128 127 118 110 107 97 99 91 92 91 93 94 102 98 97 96 95 89 90 91 87 81 76 68 61 51 42 35 26 19 6 355 342 336
254 271 267 288 290 269 227 245 247 248 226 207 32 178 123 158 134 127 118 106 103 106 110 103 93 92 87 85 90 91 92 97 93 92 91 86 82 74 70 61 49 40 26 18 7 357 346 334 324
278 278 275 270 268 253 121 243 278 259 212 93 255 190 179 157 143 130 125 118 115 114 117 119 114 114 99 96 93 92 93 92 89 81 77 109 110 105 69 45 38 30 20 12 357 344 339 321 301
268 270 263 263 240 258 136 243 157 350 214 183 121 27 98 140 148 139 137 132 127 120 119 121 124 118 127 119 122 116 105 98 108 105 55 241 48 15 46 60 28 22 7 353 348 341 325 303 283
251 264 272 4 330 271 238 255 286 229 181 176 142 115 125 151 163 160 161 152 143 135 132 135 163 156 158 137 142 118 98 68 59 46 36 25 22 25 356 69 136 52 6 316 340 322 301 311 335
257 255 301 303 279 277 260 243 232 242 233 221 187 157 155 165 175 174 167 153 148 140 136 143 151 158 166 129 144 111 92 83 78 49 27 40 20 16 15 11 14 3 9 2 353 350 356 345 335
269 263 277 284 287 269 260 272 245 247 284 24 6 159 166 175 181 179 162 151 147 146 141 148 147 133 108 143 98 99 79 75 57 54 20 27 34 32 22 21 12 12 5 1 356 352 345 339 330
266 266 278 274 259 262 277 267 264 265 244 349 149 166 176 181 181 178 151 154 153 143 145 141 135 128 124 112 98 82 76 63 56 45 40 22 34 31 29 26 24 20 9 3 357 356 346 338 333
307 287 280 268 257 256 260 265 264 252 82 189 180 184 182 185 177 161 155 156 156 142 139 136 124 120 113 101 97 96 76 91 68 54 43 40 43 33 44 35 29 22 15 2 358 354 343 337 335
284 277 270 253 244 246 263 257 247 231 215 211 204 194 184 183 171 162 164 159 150 148 138 131 125 119 112 113 111 98 98 95 85 81 56 44 36 38 29 37 26 17 9 3 0 353 347 341 340
260 264 267 305 176 210 231 272 116 144 176 206 196 187 181 176 166 163 159 163 161 148 145 140 132 132 127 119 115 104 103 97 89 76 63 46 38 25 34 30 23 4 9 9 360 357 351 344 344
243 259 277 205 185 260 221 277 142 167 176 187 185 183 184 173 178 171 169 167 158 145 141 138 135 130 122 115 109 105 105 89 81 72 59 48 40 27 26 29 20 357 9 12 3 356 354 345 344
306 293 278 272 215 208 262 264 264 188 208 214 201 186 187 186 185 168 173 161 152 150 149 141 137 131 125 125 119 109 102 90 78 68 59 43 41 27 15 34 20 359 15 11 5 356 359 355 349
290 282 275 275 281 288 268 264 265 259 194 226 221 196 194 188 176 169 171 163 159 155 154 145 143 145 157 152 140 132 117 108 96 81 58 52 39 26 27 21 18 4 23 11 9 359 1 7 0
268 269 272 276 272 267 277 270 267 256 246 211 245 211 196 184 174 173 170 172 170 164 154 152 151 156 158 145 106 107 108 88 89 83 71 51 44 33 33 17 20 18 13 17 16 12 7 11 20
261 268 276 283 293 281 267 268 261 251 245 222 245 267 198 187 173 178 178 180 176 169 163 158 150 148 135 123 131 122 122 135 129 103 84 56 49 43 33 34 27 22 20 18 18 15 20 9 22
275 286 289 284 274 269 260 285 263 257 189 208 216 247 225 184 174 182 186 185 180 167 156 146 138 127 124 144 132 159 144 132 86 94 69 70 46 41 32 35 28 30 30 23 21 24 20 17 19
267 319 279 281 276 278 262 263 270 260 199 200 177 195 200 192 182 184 187 182 184 162 157 142 136 117 115 102 105 132 103 110 111 98 94 85 77 50 45 36 37 35 33 34 28 29 31 31 29
266 273 260 259 259 262 266 254 268 304 211 81 134 168 180 188 184 180 179 178 173 166 155 149 147 138 133 127 125 119 127 127 130 121 119 95 80 71 44 51 47 47 39 35 37 32 45 37 40
238 252 254 253 237 248 256 258 278 117 125 129 172 185 188 188 189 183 179 184 168 176 170 161 152 146 146 136 129 130 130 127 128 137 106 110 90 69 58 49 50 51 45 43 38 41 45 43 38
210 235 241 270 271 277 56 247 225 93 116 127 151 286 181 191 191 190 184 182 175 178 172 168 162 150 147 141 135 133 137 126 123 106 109 95 86 77 69 70 61 54 45 46 38 47 46 43 44
252 242 259 271 268 272 268 273 216 175 166 189 199 215 205 206 198 194 186 182 176 179 178 174 162 156 153 145 139 136 131 134 121 117 115 107 105 111 84 72 69 57 50 45 55 51 46 50 45
255 265 250 233 253 257 258 262 278 162 170 143 150 241 272 197 200 191 186 182 178 181 175 173 165 158 155 147 144 143 136 137 131 128 118 115 112 101 91 74 64 60 56 51 48 54 51 47 42
244 230 240 252 263 272 274 267 85 61 77 296 299 290 212 234 197 194 189 180 177 176 175 172 163 161 155 152 148 145 141 139 141 134 126 115 108 96 83 76 75 66 58 63 67 58 46 55 43
265 269 250 238 252 248 254 259 261 261 270 280 237 277 198 221 194 203 192 180 180 184 179 174 168 165 150 151 150 146 130 149 139 133 125 112 105 94 89 89 85 74 74 58 63 71 61 53 50